Temperature
20 19 19 19 19 19 19 18 18 18 18 18 18 18 18 18 18 18 18 18 18 18 18 18 18 18 18 18 18 18 17 17 17 17 17 17 17 17 16 16 16 16 16
19 19 19 19 19 19 18 18 18 18 18 18 18 18 18 18 18 18 18 18 18 18 18 18 18 18 18 18 18 18 18 17 17 17 17 17 17 17 17 16 16 16 16
19 19 19 19 19 19 18 18 18 18 18 18 18 18 17 18 18 18 18 18 18 19 19 19 18 18 18 18 18 18 18 17 17 17 17 17 17 17 17 17 16 16 16
18 18 18 18 19 18 18 18 18 18 17 17 17 17 17 17 18 18 18 18 18 19 19 19 19 19 18 18 18 18 18 18 17 17 17 17 17 17 17 17 16 16 16
18 18 18 18 18 18 18 18 18 17 17 17 17 17 17 17 17 18 18 18 18 18 19 19 19 19 19 18 18 18 18 18 18 17 17 17 17 17 17 17 16 16 16
18 17 17 17 17 17 17 17 17 17 17 17 17 17 17 17 17 18 18 18 18 18 18 18 19 19 19 19 18 18 18 18 18 17 17 17 17 17 17 17 17 16 16
17 17 17 17 17 17 17 17 17 17 17 17 17 17 17 17 17 18 18 18 18 18 18 18 18 18 19 19 18 18 18 18 18 18 17 17 17 17 17 17 17 16 16
17 17 17 17 17 17 17 17 17 17 17 16 16 16 16 16 17 17 17 17 17 17 17 17 18 18 18 18 18 18 18 18 18 18 17 17 17 17 17 17 17 17 16
17 17 16 17 17 16 16 17 17 16 16 16 16 16 15 16 16 17 17 17 17 17 17 17 17 17 17 18 18 18 18 18 18 18 17 17 17 17 17 17 17 17 16
16 16 16 16 16 16 16 16 16 16 16 16 16 15 15 15 15 15 16 16 16 16 16 16 16 17 17 17 17 17 18 18 17 17 17 17 17 17 17 17 17 17 16
16 15 15 15 15 15 15 15 15 15 15 15 15 15 15 15 15 15 15 15 16 16 16 16 16 16 16 16 17 17 17 17 17 17 17 17 17 17 17 17 16 16 16
15 15 15 15 15 15 15 15 15 15 15 15 15 15 15 15 15 15 14 15 15 15 15 15 15 16 16 16 16 16 16 16 16 16 16 17 17 17 17 16 16 16 16
15 15 14 14 14 14 14 14 14 15 15 15 15 14 14 14 15 15 14 14 14 14 14 14 15 15 15 15 15 15 16 16 16 16 16 16 16 16 16 16 16 16 16
14 14 14 14 14 14 14 14 14 14 14 14 14 14 14 14 14 14 14 14 14 14 14 14 14 14 14 15 15 15 15 15 15 15 15 15 16 16 16 16 16 16 16
14 14 13 13 13 13 13 13 13 14 14 14 14 14 14 14 14 14 14 14 14 14 13 13 13 13 14 14 14 14 14 15 15 15 15 15 15 15 15 15 15 15 15
14 13 13 13 13 13 13 13 13 13 13 13 13 13 13 13 14 14 14 14 14 14 13 13 13 13 13 13 14 14 14 14 14 14 14 14 14 14 14 14 14 14 14
13 13 13 13 12 12 12 12 13 13 13 13 13 13 13 13 13 13 13 13 13 14 14 13 13 13 13 13 13 13 13 13 13 13 13 14 14 14 14 14 14 14 14
13 13 12 12 12 12 12 12 12 12 12 12 12 12 13 13 13 13 13 13 13 13 13 13 12 12 12 12 12 13 13 13 13 13 13 13 13 13 13 13 13 13 13
13 12 12 12 12 12 12 12 12 12 12 12 12 12 12 12 12 12 12 13 13 13 13 13 12 12 12 12 12 12 12 12 12 12 12 12 12 12 12 12 12 12 13
12 12 12 12 12 11 11 11 11 11 11 11 11 12 12 12 12 12 12 12 12 12 12 12 12 11 12 12 12 12 11 12 12 11 11 12 12 12 12 12 12 12 12
12 12 11 11 11 11 11 11 11 11 11 11 11 11 11 11 12 12 12 12 12 12 12 12 11 11 11 11 11 11 11 11 11 11 11 11 11 11 11 11 11 11 11
12 12 11 11 11 11 11 11 11 11 11 11 11 11 11 11 11 11 11 11 11 11 11 11 11 11 10 10 10 10 11 11 11 10 10 10 11 11 10 11 11 11 11
12 11 11 11 11 10 10 10 10 10 10 10 10 10 11 11 11 11 11 10 10 10 11 11 11 10 10 10 10 10 10 10 10 10 10 10 10 10 10 10 10 10 10
11 11 11 11 11 10 10 10 10 10 10 10 10 10 10 10 10 10 10 10 10 10 10 10 10 10 10 9 9 9 9 9 9 9 9 9 10 10 9 9 9 9 10
11 11 11 11 10 10 10 10 10 10 10 10 10 10 10 10 10 10 10 10 10 10 10 9 9 9 9 9 9 9 9 9 9 9 9 9 9 9 9 9 9 9 9
11 11 11 11 10 10 10 10 10 10 10 10 10 10 10 10 10 10 10 10 10 9 9 9 9 9 9 8 8 8 8 8 8 8 8 8 8 8 8 8 8 8 9
Wind_Speed
8 8 8 9 11 11 10 8 9 9 10 11 12 12 12 13 14 14 13 18 19 20 21 20 20 20 20 20 21 22 23 23 23 23 24 24 25 24 24 23 23 23 23
9 8 9 8 9 11 11 9 9 9 8 7 10 10 11 12 13 14 14 16 19 20 20 20 20 21 21 20 21 22 22 22 23 23 24 24 24 25 24 24 24 24 24
11 9 9 9 9 11 11 9 8 6 6 7 9 10 9 10 11 12 13 13 14 17 19 20 20 21 21 21 22 22 23 23 23 23 24 24 24 24 25 25 25 24 24
14 9 10 10 10 10 8 8 6 5 6 6 7 8 8 8 11 11 11 12 13 14 15 18 19 20 21 21 22 22 23 23 23 24 24 24 24 24 24 24 24 24 25
13 9 10 10 9 8 8 8 6 5 5 6 7 8 8 9 10 11 11 11 13 14 14 15 18 19 20 21 21 22 23 23 23 24 24 24 24 24 24 23 23 24 24
10 8 8 10 9 8 8 8 8 7 6 7 8 9 8 10 9 10 11 10 10 11 12 12 12 12 16 18 19 19 21 22 23 23 23 24 24 24 24 23 23 23 23
7 6 7 8 8 9 10 10 8 9 8 6 5 7 8 10 11 9 9 8 9 9 9 9 9 9 9 12 15 16 17 19 21 22 22 23 24 24 24 24 23 23 23
6 6 6 6 6 7 9 9 8 7 6 7 6 4 4 4 6 7 6 7 7 5 6 6 6 6 7 7 8 11 12 13 16 19 21 21 22 24 24 24 23 23 23
6 5 7 6 6 6 7 8 9 10 8 8 8 6 5 6 2 2 4 4 4 3 4 4 4 4 5 4 4 4 5 5 7 11 14 17 19 22 23 24 24 24 23
6 6 7 6 6 6 7 7 8 8 9 8 6 8 7 4 3 2 2 2 3 3 3 2 2 2 2 1 0 0 1 0 1 3 6 10 13 17 20 22 23 24 24
6 6 7 6 7 6 7 8 7 8 8 9 7 5 7 6 6 5 4 2 2 2 2 1 1 1 1 2 2 3 4 4 4 3 1 2 6 11 16 19 22 22 23
5 6 7 7 7 7 7 8 8 9 9 9 8 7 6 5 5 6 6 4 2 1 1 1 2 2 2 3 4 6 6 6 6 5 4 3 1 4 10 14 17 18 20
5 7 7 7 8 8 8 8 8 9 9 10 10 8 8 7 4 5 5 4 3 1 0 2 3 2 3 4 5 7 7 7 7 6 6 6 6 5 2 7 10 12 14
6 7 8 8 9 9 8 8 7 8 8 9 10 10 8 7 6 5 5 5 3 2 1 1 2 4 3 4 6 7 7 8 8 8 8 8 8 9 8 7 5 4 4
6 7 8 9 9 8 8 7 6 7 6 7 8 8 7 5 6 5 5 5 5 4 2 1 2 3 3 5 7 7 7 9 10 10 9 9 9 10 10 9 9 8 6
6 7 8 8 8 8 7 6 6 5 4 4 4 5 5 4 4 5 5 4 4 4 3 2 2 3 4 5 8 8 9 11 12 11 10 10 10 10 10 10 10 8 7
6 7 8 8 8 8 7 5 5 3 3 2 2 4 4 4 3 3 4 4 4 5 6 3 3 3 5 6 6 8 9 9 9 12 11 11 11 11 10 10 9 8 7
6 6 7 7 7 7 5 4 3 1 1 3 3 4 4 5 5 4 4 5 5 6 8 8 3 4 5 5 5 7 6 8 9 12 12 12 11 11 10 10 10 9 8
5 5 5 6 6 5 4 2 1 2 3 4 5 5 5 7 7 6 7 7 7 8 8 8 5 3 4 5 5 5 6 6 7 10 11 11 11 11 11 10 10 9 8
4 4 4 4 3 2 2 2 3 4 5 6 6 6 6 7 8 8 8 9 10 10 10 9 6 5 4 4 4 5 5 5 6 7 8 8 9 10 11 10 10 9 9
4 2 2 2 2 2 3 4 4 6 6 7 7 8 8 10 11 9 10 10 11 10 9 9 7 6 4 4 4 3 4 3 5 6 5 5 5 5 6 8 9 9 9
4 2 1 0 2 2 5 7 6 6 6 8 8 8 10 11 15 16 15 13 11 11 10 8 7 6 4 3 2 3 3 3 4 6 4 5 4 5 5 5 8 9 9
5 4 3 3 3 3 5 7 8 6 7 7 7 7 8 10 11 12 14 14 12 11 10 8 8 5 3 1 2 4 4 4 3 4 3 4 5 4 4 6 8 10 10
7 6 6 6 5 5 7 7 9 7 7 7 6 7 9 8 9 11 12 11 10 8 7 7 7 4 3 2 2 2 2 3 2 4 4 4 4 3 4 5 8 11 12
9 8 7 8 7 7 9 11 10 7 7 7 6 6 8 8 11 14 13 12 10 8 10 12 11 10 9 7 4 4 4 4 4 4 5 3 4 3 3 3 6 11 12
10 10 9 9 9 8 11 13 12 8 8 7 6 6 7 10 11 12 11 11 11 7 7 9 9 10 9 10 10 6 4 4 3 4 5 4 4 4 3 3 4 8 10
Wind_Direction
242 242 246 248 248 247 246 249 250 254 256 258 257 255 254 254 255 254 258 262 264 266 268 269 269 266 262 255 244 236 230 226 223 220 220 221 221 219 218 218 216 215 214
238 241 244 244 245 244 245 244 246 251 257 262 264 260 258 258 258 257 257 261 262 263 265 267 267 265 260 254 245 237 232 228 225 222 221 221 221 220 219 219 218 217 215
237 239 245 247 245 243 242 243 244 244 254 259 264 267 265 260 258 258 260 261 263 262 261 261 262 262 258 252 246 239 234 230 227 223 222 221 221 220 219 219 218 217 215
239 239 245 249 246 243 238 238 236 239 246 255 264 268 268 268 264 261 261 260 260 261 260 260 260 260 259 255 249 242 237 233 230 226 223 221 220 220 219 219 218 217 215
245 237 244 246 243 240 237 235 229 224 237 246 258 266 265 263 261 262 259 259 258 257 258 260 259 258 259 257 252 246 240 235 232 229 224 221 220 218 217 218 218 216 214
257 246 247 249 243 241 237 229 226 220 223 226 243 254 255 257 256 253 255 259 261 260 258 257 258 258 256 255 253 250 245 238 234 231 227 223 219 216 215 215 216 215 213
277 265 264 260 246 239 237 229 224 224 225 213 230 253 256 252 251 250 250 253 257 259 257 253 254 254 256 253 250 249 249 243 237 233 231 226 221 216 213 213 213 212 211
297 291 281 275 262 250 246 238 227 229 226 203 209 229 256 265 248 242 241 241 246 250 254 254 253 251 249 247 245 242 246 248 242 236 231 227 222 217 212 211 211 210 209
308 300 294 287 277 261 254 246 234 232 235 221 209 207 218 233 251 255 236 233 237 246 259 266 263 263 259 250 249 252 251 262 258 248 237 227 222 217 212 210 209 209 209
310 309 304 298 288 275 263 253 241 236 234 234 222 220 222 199 199 251 264 253 251 250 257 261 269 283 287 276 277 344 3 323 300 280 252 232 223 216 212 210 210 209 208
307 309 308 303 294 280 270 263 255 243 235 233 225 215 223 224 216 219 243 254 275 276 280 267 259 318 21 40 48 54 55 51 44 33 14 247 225 216 210 210 212 212 211
304 309 310 304 295 286 275 267 259 251 242 235 229 219 208 205 206 210 223 228 230 257 333 8 38 29 29 37 50 59 62 58 51 48 47 46 37 215 207 208 211 212 212
307 309 310 305 299 290 282 273 263 255 244 238 233 228 221 216 193 193 200 204 201 212 27 30 25 33 48 44 43 50 53 55 55 53 52 54 54 54 166 201 207 212 214
294 299 303 300 296 292 286 278 270 260 250 241 235 227 224 217 202 194 187 176 172 164 105 57 24 31 42 49 47 54 52 54 60 61 60 60 62 64 68 81 101 141 175
292 300 303 302 300 297 291 284 274 267 254 242 230 220 216 209 199 197 188 178 169 166 152 74 52 20 35 59 48 60 62 62 67 70 69 68 69 71 74 78 81 84 89
292 302 306 306 305 303 297 288 280 266 252 239 217 206 201 195 189 188 183 178 169 151 135 96 65 33 39 65 54 62 66 64 62 67 71 72 73 75 76 77 78 79 79
292 299 305 308 307 306 301 293 288 270 239 212 186 176 171 161 163 163 157 155 147 132 126 104 56 39 53 60 53 57 61 61 58 59 68 72 73 74 74 73 71 68 64
287 297 305 309 309 308 305 296 293 277 169 142 135 131 131 131 120 120 126 128 125 120 126 119 71 47 51 53 56 55 51 55 54 53 61 66 69 72 73 70 66 60 52
285 301 311 313 314 318 326 336 30 84 97 100 104 112 113 113 107 103 104 106 105 105 103 111 95 58 56 48 54 53 50 42 47 47 53 59 61 67 68 66 61 53 43
272 297 312 318 326 350 27 53 71 85 89 86 86 90 95 106 110 109 106 106 107 104 102 104 96 75 59 42 56 56 54 40 37 31 37 45 54 61 61 58 52 44 35
248 268 307 345 4 45 76 87 86 92 94 91 83 81 87 99 105 108 114 112 111 108 106 103 96 85 66 55 52 40 61 52 47 26 22 30 34 42 44 44 43 36 25
225 218 225 81 62 89 91 92 98 98 95 93 90 87 91 92 94 93 97 101 110 117 116 107 101 95 82 65 54 54 56 55 43 10 12 18 22 32 30 34 29 26 17
207 202 194 165 142 129 123 112 104 103 97 93 94 96 99 97 98 101 94 90 89 97 111 119 113 112 105 93 89 75 67 70 58 356 0 19 9 17 18 26 24 23 14
203 198 191 177 165 166 154 138 120 107 99 89 88 98 108 107 113 113 106 96 87 81 92 100 110 108 103 112 102 95 95 88 64 33 18 22 356 350 349 8 18 14 9
206 199 190 180 176 177 167 149 132 119 106 94 87 96 112 111 119 119 114 107 96 85 82 88 86 82 78 78 99 99 82 78 56 26 16 16 351 337 339 353 3 6 3
213 198 193 186 181 179 175 159 143 134 124 115 98 91 105 118 123 123 123 122 117 111 105 92 76 66 68 63 60 69 85 84 69 32 7 5 2 360 358 349 352 4 4
Height
1529 1529 1530 1530 1530 1530 1530 1531 1531 1531 1532 1532 1531 1531 1531 1530 1530 1529 1529 1529 1529 1529 1529 1529 1529 1530 1530 1530 1530 1531 1532 1532 1533 1534 1535 1537 1539 1541 1543 1545 1547 1549 1551
1525 1525 1525 1525 1525 1526 1526 1526 1526 1527 1527 1527 1527 1527 1527 1526 1526 1525 1525 1525 1524 1524 1524 1525 1525 1525 1525 1525 1526 1526 1527 1528 1529 1530 1531 1532 1534 1536 1538 1540 1542 1544 1546
1520 1520 1520 1520 1520 1521 1521 1521 1521 1521 1521 1522 1522 1522 1522 1521 1521 1520 1520 1519 1519 1519 1519 1519 1519 1519 1520 1520 1521 1521 1522 1522 1524 1525 1526 1527 1529 1531 1532 1535 1537 1540 1542
1516 1515 1515 1515 1515 1515 1515 1515 1515 1515 1515 1515 1515 1516 1516 1516 1515 1515 1514 1513 1513 1513 1513 1513 1513 1513 1514 1514 1515 1516 1516 1517 1518 1519 1521 1522 1524 1525 1527 1530 1532 1534 1537
1510 1509 1508 1508 1508 1508 1508 1508 1507 1508 1508 1508 1508 1509 1509 1509 1508 1508 1507 1507 1507 1507 1506 1506 1506 1507 1508 1508 1509 1510 1511 1511 1513 1514 1515 1516 1518 1520 1522 1524 1527 1529 1532
1504 1503 1502 1501 1501 1500 1500 1500 1500 1500 1501 1501 1501 1501 1501 1501 1501 1500 1500 1501 1500 1500 1500 1500 1500 1500 1501 1502 1503 1504 1505 1505 1506 1508 1509 1511 1512 1514 1516 1519 1521 1524 1526
1498 1497 1496 1495 1494 1493 1493 1493 1493 1493 1492 1493 1494 1493 1493 1494 1493 1493 1494 1494 1494 1494 1493 1493 1493 1494 1494 1495 1496 1498 1499 1500 1500 1502 1503 1505 1506 1508 1510 1513 1516 1518 1521
1492 1491 1489 1488 1487 1486 1486 1485 1485 1485 1485 1486 1487 1487 1486 1486 1485 1486 1487 1487 1487 1487 1487 1487 1487 1487 1488 1489 1490 1492 1493 1494 1495 1496 1497 1499 1501 1503 1505 1507 1510 1513 1516
1487 1485 1484 1482 1481 1480 1479 1478 1478 1478 1478 1478 1479 1481 1481 1479 1479 1480 1480 1481 1482 1482 1482 1482 1482 1482 1482 1483 1484 1485 1487 1488 1489 1490 1491 1493 1495 1497 1499 1501 1504 1507 1510
1482 1480 1478 1476 1474 1473 1472 1471 1471 1471 1471 1471 1472 1473 1474 1474 1475 1474 1476 1476 1477 1477 1477 1477 1477 1477 1478 1478 1479 1480 1481 1482 1483 1484 1485 1487 1489 1491 1493 1496 1498 1501 1505
1477 1475 1473 1470 1468 1467 1466 1465 1464 1464 1464 1464 1465 1466 1467 1467 1468 1470 1470 1471 1473 1473 1473 1473 1473 1473 1474 1474 1474 1475 1476 1477 1478 1479 1480 1481 1483 1485 1487 1490 1493 1496 1499
1472 1470 1467 1465 1463 1461 1460 1459 1458 1457 1457 1457 1458 1458 1460 1461 1461 1463 1464 1466 1467 1469 1469 1470 1470 1470 1471 1471 1471 1471 1472 1473 1474 1474 1475 1477 1478 1480 1482 1485 1487 1490 1493
1467 1464 1462 1459 1457 1455 1453 1452 1451 1450 1450 1450 1450 1451 1453 1454 1456 1458 1460 1461 1463 1465 1466 1467 1467 1467 1468 1469 1469 1469 1470 1470 1471 1471 1472 1473 1474 1475 1477 1480 1482 1485 1488
1463 1460 1457 1454 1451 1449 1447 1446 1445 1444 1443 1443 1443 1445 1446 1448 1450 1452 1454 1457 1459 1461 1463 1464 1465 1465 1466 1467 1468 1468 1468 1468 1469 1469 1469 1470 1471 1472 1473 1475 1477 1480 1483
1459 1456 1453 1450 1447 1444 1442 1441 1439 1438 1437 1437 1437 1439 1440 1442 1444 1447 1449 1452 1455 1457 1459 1461 1462 1464 1465 1466 1466 1467 1467 1467 1467 1467 1468 1468 1469 1469 1470 1471 1473 1476 1478
1456 1452 1449 1446 1443 1440 1438 1436 1434 1433 1432 1432 1433 1434 1436 1438 1440 1442 1445 1447 1450 1453 1455 1458 1460 1462 1464 1465 1465 1466 1466 1466 1466 1466 1467 1467 1467 1468 1469 1470 1471 1473 1475
1452 1449 1445 1442 1439 1436 1434 1432 1430 1429 1428 1428 1429 1431 1432 1434 1436 1438 1441 1444 1446 1450 1453 1456 1459 1461 1463 1464 1464 1465 1465 1465 1465 1465 1466 1466 1466 1467 1468 1468 1469 1470 1472
1449 1446 1442 1439 1436 1433 1431 1429 1427 1426 1425 1426 1427 1428 1430 1432 1434 1436 1439 1442 1445 1448 1451 1454 1458 1461 1463 1464 1464 1465 1465 1465 1465 1465 1465 1466 1466 1466 1467 1467 1468 1468 1469
1446 1443 1439 1436 1433 1431 1429 1427 1426 1425 1424 1425 1426 1428 1429 1431 1433 1436 1439 1441 1444 1448 1451 1454 1458 1461 1463 1464 1465 1465 1466 1466 1466 1466 1466 1466 1466 1465 1466 1466 1466 1466 1466
1443 1440 1437 1434 1432 1430 1428 1426 1425 1425 1425 1425 1427 1429 1431 1432 1434 1437 1439 1442 1445 1449 1453 1456 1459 1461 1463 1464 1465 1466 1466 1466 1466 1466 1466 1466 1466 1465 1465 1465 1465 1465 1464
1440 1438 1436 1433 1431 1429 1428 1427 1426 1426 1427 1427 1429 1431 1433 1435 1437 1439 1442 1445 1448 1451 1455 1457 1460 1462 1464 1465 1465 1466 1466 1467 1467 1467 1467 1466 1466 1466 1465 1464 1464 1463 1462
1437 1435 1434 1432 1431 1429 1429 1428 1428 1428 1429 1430 1431 1433 1435 1437 1440 1442 1445 1448 1452 1454 1457 1459 1461 1463 1464 1465 1466 1466 1467 1467 1467 1468 1467 1467 1466 1465 1464 1464 1463 1461 1460
1433 1432 1432 1431 1431 1430 1430 1429 1430 1430 1431 1433 1434 1436 1438 1441 1443 1446 1449 1451 1454 1457 1460 1461 1462 1464 1465 1466 1467 1467 1467 1467 1467 1468 1467 1467 1466 1465 1464 1463 1461 1460 1458
1428 1428 1428 1429 1429 1430 1431 1431 1432 1433 1434 1436 1438 1440 1442 1444 1446 1449 1451 1454 1457 1459 1461 1463 1464 1465 1466 1467 1467 1468 1467 1467 1468 1467 1467 1466 1466 1465 1464 1462 1461 1459 1457
1421 1423 1424 1426 1427 1429 1430 1432 1433 1435 1436 1438 1440 1442 1445 1447 1449 1451 1454 1455 1458 1460 1463 1464 1465 1466 1467 1467 1468 1468 1468 1468 1468 1467 1467 1466 1465 1463 1463 1462 1460 1458 1456
1415 1417 1419 1422 1424 1426 1429 1431 1433 1435 1437 1439 1441 1444 1447 1449 1451 1453 1455 1457 1459 1461 1463 1465 1466 1467 1468 1468 1469 1469 1468 1468 1468 1468 1467 1466 1464 1463 1462 1461 1459 1457 1454